Regional Weather Roundup
Issued by NWS Upton, NY

Current Version | Previous Version | Text Only | Print | Product List | Glossary Off
Versions: 1 2 3 4 5 6 7 8 9 10 11 12 13 14 15 16 17 18 19 20 21 22 23 24 25 26 27 28 29 30 31 32 33 34 35 36 37 38 39 40 41 42 43 44 45 46 47 48 49 50
000 ASUS41 KOKX 291807 RWROKX REGIONAL WEATHER ROUNDUP NATIONAL WEATHER SERVICE NEW YORK NY 200 PM EDT SUN MAR 29 2015 NOTE: "FAIR" INDICATES FEW OR NO CLOUDS BELOW 12,000 FEET WITH NO SIGNIFICANT WEATHER AND/OR OBSTRUCTIONS TO VISIBILITY. NYZ071-072-176-178-NJZ106-104-291900- NEW YORK CITY METRO AREA CITY SKY/WX TMP DP RH WIND PRES REMARKS CENTRAL PARK SUNNY 40 1 19 VRB3 30.26F LAGUARDIA APRT SUNNY 40 3 21 NW7 30.24F KENNEDY INTL SUNNY 42 -1 16 NW7 30.25F NEWARK/LIBERTY SUNNY 44 1 16 VRB6 30.25F BRNX BOT. GARD N/A N/A N/A N/A W7 30.26R TETERBORO SUNNY 41 8 25 NW8 30.24F $$ NYZ177-179-078>081-291900- LONG ISLAND NEW YORK CITY SKY/WX TMP DP RH WIND PRES REMARKS FARMINGDALE SUNNY 40 5 23 N10 30.23F WCI 33 ISLIP SUNNY 39 6 25 N15G22 30.21F WCI 31 SHIRLEY SUNNY 38 9 30 NW14 30.23F WCI 30 WESTHAMPTON SUNNY 37 12 35 NW10 30.23F WCI 30 MONTAUK POINT N/A 37 11 34 VRB3 30.21F $$ NYZ052-065-067-291900- HUDSON VALLEY CITY SKY/WX TMP DP RH WIND PRES REMARKS WHITE PLAINS SUNNY 39 6 25 NW10G17 30.20F WCI 32 NEWBURGH SUNNY 39 5 24 NW7 30.22F WCI 34 MONTGOMERY SUNNY 42 5 21 N7 30.19F POUGHKEEPSIE SUNNY 42 5 21 N9 30.22F ALBANY SUNNY 40 8 26 NW10 30.22F WCI 33 $$ NJZ001-105-106-008-010-013-015-019>022-104-291900- NEW JERSEY CITY SKY/WX TMP DP RH WIND PRES REMARKS NEWARK/LIBERTY SUNNY 44 1 16 VRB6 30.25F TETERBORO SUNNY 41 8 25 NW8 30.24F CALDWELL SUNNY 40 3 21 VRB5 30.24F MORRISTOWN SUNNY 39 5 24 NE5G14 30.26F SOMERVILLE SUNNY 43 3 19 N7 30.23F SUSSEX SUNNY 39 7 26 VRB7 30.22F WCI 34 ANDOVER N/A 40 6 24 VRB7 30.22F TRENTON SUNNY 41 7 24 NW13G18 30.25F MILLVILLE SUNNY 41 7 24 NW9G23 30.29F ATLANTIC CITY SUNNY 41 3 20 VRB5G18 30.27F WRIGHTSTOWN SUNNY 40 8 26 W8G18 30.25F TOMS RIVER SUNNY 41 5 22 NE5G17 30.26F BELMAR SUNNY 41 7 24 N8G17 30.24F $$ PAZ047>061-062-071-291900- EASTERN PENNSYLVANIA CITY SKY/WX TMP DP RH WIND PRES REMARKS PHILADELPHIA SUNNY 41 6 23 NW9G16 30.29F ALLENTOWN SUNNY 41 6 23 NW8 30.26F SCRANTON SUNNY 39 5 24 NW12 30.21F WCI 32 $$ CTZ002-004>006-009-010-012-RIZ004-006-007-MAZ004-011-015-291900- SOUTHERN NEW ENGLAND IN CT CITY SKY/WX TMP DP RH WIND PRES REMARKS BRADLEY INTL MOSUNNY 43 4 19 N10G18 30.17F HARTFORD SUNNY 41 5 22 VRB6 30.19F DANBURY SUNNY 38 5 25 N9G20 30.21F WCI 31 WTRBRY/OXFORD SUNNY 36 9 32 NW12G21 30.19F WCI 27 BRIDGEPORT SUNNY 40 5 23 NW3G20 30.21F MERIDEN SUNNY 40 8 26 NW12 30.20F WCI 33 NEW HAVEN SUNNY 41 6 23 N8 30.20F CHESTER FAIR 37 3 23 N8G16 30.19F WCI 31 GROTON SUNNY 40 9 28 VRB3 30.18F WILLIMANTIC SUNNY 39 7 26 N7G16 30.18F WCI 34 IN RI CITY SKY/WX TMP DP RH WIND PRES REMARKS PROVIDENCE MOSUNNY 39 9 29 VRB6 30.18F WCI 35 BLOCK ISLAND SUNNY 36 19 51 NW5 30.18F WCI 32 WESTERLY SUNNY 38 12 34 NE7 30.19F WCI 33 IN MA CITY SKY/WX TMP DP RH WIND PRES REMARKS BOSTON SUNNY 37 12 35 SE9 30.16F WCI 30 WORCESTER SUNNY 35 4 27 MISG 30.12F WESTFIELD SUNNY 41 3 20 W9 30.17F PROVINCETOWN SUNNY 36 12 38 NW8 30.18F WCI 29 NANTUCKET SUNNY 39 20 46 NE14 30.16F WCI 31 $$ ANZ330-335-338-340-345-350-353-355-291900- COASTAL MARINE OBSERVATIONS STATION/POSITION TIME SKY/WX TEMP WIND PRES VSBY WAVE AIR SEA DIR/SP/G HT/PER (UTC) (F) (DEG/KT/KT) (MB) (MI) (FT/S) NY HARB ENTRANCE 1750 35 39 290/ 10/ 12 1024.3 4/ 9 4S FIRE IS 1703 37 N/A 4/11 20S FIRE ISLAND 1650 38 1025.0 5/ 9 23SW MTP 1750 N/A 5/ 9 HUDSON CANYON NOT AVBL EXECUTION ROCKS NOT AVBL WESTERN LI SOUND NOT AVBL CENTRAL LI SOUND NOT AVBL EASTERN LI SOUND NOT AVBL ROBBINS REEF 1700 310/ 9/ 12 1023.7 $$ >>>>>>>>>>>>>>>>>>>>>>>>>>>> KEY <<<<<<<<<<<<<<<<<<<<<<<<<<< > < > SKY/WX - SKY CONDITION/PRESENT WEATHER < > TMP - TEMPERATURE IN FAHRENHEIT < > DP - DEWPOINT IN FAHRENHEIT < > RH - RELATIVE HUMIDITY IN PERCENT < > WIND - DIRECTION AND SPEED IN MPH < > PRES - MEAN SEA LEVEL PRESSURE IN INCHES OF HG < > WCI - WIND CHILL INDEX < > VSB - VISIBILITY IN MILES < > HX - HEAT INDEX < > TC - TEMPERATURE IN CELSIUS < > VRB - VARIABLE WIND DIRECTION < > < >>>>>>>>>>>>>>>>>>>>>>>>>>>> KEY <<<<<<<<<<<<<<<<<<<<<<<<<<<

USA.gov is the U.S. government's official web portal to all federal, state and local government web resources and services.